N1LTP Weather Reports


Display with metric or nautical units.
time (UTC)temp
F
wind
direction
speed
MPH
gust
MPH
rain 1hr
in
rain 24hr
in
rain mn
in
humidity
%
barometer
mb
20260902124545 64 82 2.0 7.0 0.00 0.13 0.00 93 1020.7
20260902123051 63 84 1.0 6.0 0.00 0.13 0.00 93 1020.7
20260902121540 62 355 0.0 2.0 0.00 0.13 0.00 93 1020.9
20260902120036 61 355 0.0 1.0 0.00 0.13 0.00 93 1021.0
20260902114533 60 355 0.0 2.0 0.00 0.13 0.00 93 1021.1
20260902113036 59 355 0.0 0.0 0.00 0.13 0.00 92 1021.0
20260902111530 59 355 0.0 0.0 0.00 0.13 0.00 92 1020.9
20260902110038 59 355 0.0 1.0 0.00 0.13 0.00 92 1020.8
20260902104527 59 355 0.0 0.0 0.00 0.13 0.00 92 1020.4
20260902103025 59 355 0.0 1.0 0.00 0.13 0.00 91 1020.4
20260902101527 59 355 0.0 0.0 0.00 0.13 0.00 92 1020.2
20260902100021 59 355 0.0 0.0 0.00 0.13 0.00 92 1019.9
20260902094523 59 355 0.0 0.0 0.00 0.13 0.00 92 1019.9
20260902093029 59 355 0.0 1.0 0.00 0.13 0.00 92 1019.7
20260902091519 59 355 0.0 0.0 0.00 0.13 0.00 92 1019.7
20260902090017 59 355 0.0 1.0 0.00 0.13 0.00 91 1019.5
20260902084520 59 355 0.0 1.0 0.00 0.13 0.00 91 1019.7
20260902083015 59 355 0.0 0.0 0.00 0.13 0.00 91 1019.6
20260902081514 60 355 0.0 0.0 0.00 0.13 0.00 92 1019.4
20260902080015 60 355 0.0 0.0 0.00 0.13 0.00 92 1019.4
20260902074513 60 355 0.0 1.0 0.00 0.13 0.00 92 1019.7
20260902073014 59 355 0.0 0.0 0.00 0.13 0.00 91 1019.6
20260902071510 59 355 0.0 1.0 0.00 0.13 0.00 91 1019.4
20260902070015 59 355 0.0 0.0 0.00 0.13 0.00 91 1019.4
20260902064509 59 355 0.0 0.0 0.00 0.13 0.00 91 1019.2
20260902063008 59 355 0.0 1.0 0.00 0.13 0.00 91 1019.2
20260902061522 59 355 0.0 1.0 0.00 0.13 0.00 92 1019.2
20260902060007 59 355 0.0 1.0 0.00 0.13 0.00 92 1019.5
20260902054510 59 355 0.0 1.0 0.00 0.13 0.00 91 1019.4
20260902053006 59 355 0.0 1.0 0.00 0.13 0.00 91 1019.2
20260902051505 59 355 0.0 0.0 0.00 0.13 0.00 91 1019.2
20260902050006 59 355 0.0 1.0 0.00 0.13 0.00 91 1019.3
20260902044502 60 355 0.0 0.0 0.00 0.13 0.00 91 1019.1
20260902043108 60 355 0.0 2.0 0.00 0.13 0.00 91 1019.1
20260902041559 60 355 0.0 0.0 0.00 0.13 0.00 91 1018.8
20260902040057 60 355 0.0 0.0 0.00 0.13 0.00 91 1018.4
20260902034558 60 355 0.0 0.0 0.00 0.13 0.13 91 1018.5
20260902033058 60 355 0.0 0.0 0.00 0.13 0.13 91 1018.4
20260902031554 60 355 0.0 0.0 0.00 0.13 0.13 91 1018.4
20260902030053 60 355 0.0 1.0 0.00 0.13 0.13 91 1018.3
20260902024553 60 355 0.0 0.0 0.00 0.13 0.13 91 1018.4
20260902023106 60 355 0.0 0.0 0.00 0.13 0.13 91 1018.3
20260902021550 60 355 0.0 0.0 0.00 0.13 0.13 90 1018.1
20260902020049 60 355 0.0 0.0 0.00 0.13 0.13 90 1018.1
20260902014549 60 355 0.0 1.0 0.00 0.13 0.13 90 1018.4
20260902013053 61 355 0.0 0.0 0.00 0.13 0.13 90 1018.2
20260902011546 61 355 0.0 0.0 0.00 0.13 0.13 90 1018.0
20260902010045 61 355 0.0 0.0 0.00 0.13 0.13 90 1018.3
20260902004544 61 355 0.0 0.0 0.00 0.13 0.13 90 1018.0
20260902003044 61 355 0.0 0.0 0.00 0.13 0.13 90 1017.9
20260902001559 61 355 0.0 1.0 0.00 0.13 0.13 90 1017.9
20260902000044 61 355 0.0 0.0 0.00 0.13 0.13 90 1017.9
20260901234540 61 355 0.0 0.0 0.00 0.13 0.13 90 1017.7
20260901233040 61 355 0.0 0.0 0.00 0.13 0.13 90 1017.6
20260901231540 61 355 0.0 0.0 0.00 0.13 0.13 90 1017.6
20260901230039 61 355 0.0 0.0 0.00 0.13 0.13 90 1017.6
20260901224538 61 355 0.0 0.0 0.00 0.13 0.13 90 1017.6
20260901223046 61 355 0.0 0.0 0.01 0.13 0.13 90 1017.6
20260901221554 61 355 0.0 2.0 0.01 0.13 0.13 90 1017.5
20260901220040 61 300 0.0 0.0 0.01 0.13 0.13 89 1017.8
20260901214537 61 300 0.0 1.0 0.03 0.13 0.13 89 1017.8
20260901213035 61 300 0.0 0.0 0.02 0.12 0.12 89 1017.7
20260901211535 61 300 0.0 0.0 0.02 0.12 0.12 89 1017.7
20260901210034 61 300 0.0 0.0 0.02 0.12 0.12 89 1017.5
20260901204533 61 300 0.0 1.0 0.01 0.10 0.10 89 1017.3
20260901203034 61 300 0.0 0.0 0.01 0.10 0.10 89 1017.3
20260901201532 61 321 0.0 0.0 0.02 0.10 0.10 88 1017.2
20260901200038 61 321 0.0 0.0 0.02 0.10 0.10 88 1017.2
20260901194530 62 321 0.0 1.0 0.01 0.09 0.09 89 1017.3
20260901193029 62 321 0.0 2.0 0.01 0.09 0.09 88 1017.2
20260901191549 62 321 0.0 1.0 0.01 0.08 0.08 88 1017.1
20260901190025 63 321 0.0 2.0 0.02 0.08 0.08 88 1016.9
20260901184524 63 321 0.0 1.0 0.06 0.08 0.08 88 1016.9
20260901183023 63 321 0.0 1.0 0.07 0.08 0.08 87 1017.1
20260901181522 64 321 0.0 1.0 0.06 0.07 0.07 87 1017.1
20260901180019 64 321 0.0 1.0 0.05 0.06 0.06 85 1016.8
20260901174517 65 321 0.0 1.0 0.00 0.01 0.01 83 1016.6
20260901173022 66 321 0.0 1.0 0.00 0.01 0.01 81 1016.9
20260901171521 67 320 0.0 2.0 0.00 0.01 0.01 80 1016.8
20260901170014 67 320 0.0 3.0 0.00 0.01 0.01 80 1016.6
20260901164531 68 317 0.0 2.0 0.00 0.01 0.01 82 1016.6
20260901163009 68 302 1.0 7.0 0.00 0.01 0.01 82 1016.4
20260901161513 69 24 0.0 2.0 0.00 0.01 0.01 82 1016.3
20260901160007 69 5 0.0 3.0 0.00 0.01 0.01 83 1016.4
20260901154504 69 163 0.0 3.0 0.00 0.01 0.01 84 1016.3
20260901153005 70 142 0.0 5.0 0.00 0.01 0.01 85 1016.5
20260901151502 69 81 0.0 2.0 0.01 0.01 0.01 87 1016.6
20260901150100 69 81 0.0 2.0 0.01 0.01 0.01 88 1016.6
20260901144559 68 81 0.0 1.0 0.01 0.01 0.01 89 1016.8
20260901143057 68 81 0.0 1.0 0.01 0.01 0.01 89 1016.6
20260901141552 67 81 0.0 1.0 0.00 0.00 0.00 89 1016.9
20260901140048 67 81 0.0 0.0 0.00 0.00 0.00 88 1017.2
20260901134547 67 81 0.0 1.0 0.00 0.00 0.00 88 1017.1
20260901133045 66 81 0.0 2.0 0.00 0.00 0.00 88 1016.7
20260901131547 66 81 0.0 1.0 0.00 0.00 0.00 88 1016.9
20260901130055 66 81 0.0 0.0 0.00 0.00 0.00 88 1017.0